Location: La Pernelle
(49.6188°N, 1.2999°W)
Time: 04:35:45
(UTC+00:00)

USA 267 - Visible Passes

Search period start: 17 October 2021 00:00
Search period end: 27 October 2021 00:00
Orbit: 1101 x 1106 km, 123.0° (Epoch: 02 September)

Date Brightness Start Highest point End Pass type
(mag) Time Alt. Az. Time Alt. Az. Time Alt. Az.
17 Oct 4.8 17:49:32 10° SSE 17:55:30 37° SW 18:01:30 10° WNW visible
18 Oct 5.6 18:51:51 10° SSW 18:56:21 19° WSW 19:00:53 10° W visible
19 Oct 4.7 18:07:06 10° SSE 18:13:03 36° SW 18:19:02 10° WNW visible
20 Oct 5.5 19:09:26 10° SSW 19:13:55 19° WSW 19:18:25 10° W visible
21 Oct 4.7 18:24:41 10° SSE 18:30:37 36° SW 18:36:36 10° WNW visible
22 Oct 3.8 17:41:05 10° SE 17:47:33 62° SW 17:54:04 10° WNW visible
22 Oct 5.5 19:27:01 10° SSW 19:31:29 19° WSW 19:35:58 10° W visible
23 Oct 4.6 18:42:15 10° SSE 18:48:11 36° SW 18:54:10 10° WNW visible
24 Oct 3.8 17:58:38 10° SE 18:05:07 62° SW 18:11:38 10° WNW visible
24 Oct 5.4 19:44:37 10° SSW 19:49:03 19° WSW 19:53:31 10° W visible
25 Oct 3.3 17:15:42 10° ESE 17:22:17 87° NNE 17:28:52 10° WNW visible
25 Oct 4.6 18:59:49 10° SSE 19:05:45 36° SW 19:11:42 10° WNW visible
26 Oct 3.7 18:16:13 10° SE 18:22:41 62° SW 18:29:11 10° WNW visible
26 Oct 5.3 20:02:12 10° SSW 20:06:37 19° WSW 20:11:03 10° W visible
